Regional Weather Roundup
Issued by NWS

Home | Current Version | Previous Version | Text Only | Print | Product List | Glossary On
Versions: 1 2 3 4 5 6 7 8 9 10 11 12 13 14 15 16 17 18 19 20 21 22 23 24 25 26 27 28 29 30 31 32 33 34 35 36 37 38 39 40 41 42 43 44 45 46 47 48 49 50
876
ASUS44 KLIX 281805
RWRLA
LOUISIANA WEATHER ROUNDUP
NATIONAL WEATHER SERVICE NEW ORLEANS LA
1200 PM CST SAT FEB 28 2015

NOTE: "FAIR" INDICATES FEW OR NO CLOUDS BELOW 12,000 FEET WITH NO
      SIGNIFICANT WEATHER AND/OR OBSTRUCTIONS TO VISIBILITY.
      SKY/WX - SKY CONDITION AND SIGNIFICANT WEATHER.
      TMP - AIR TEMPERATURE.    DP   - DEWPOINT TEMPERATURE.
      RH  - RELATIVE HUMIDITY.  PRES - PRESSURE.
      HX  - HEAT INDEX.         WCI  - WIND CHILL INDEX.

*  THESE STATIONS ARE NOT NWS OR FAA STATIONS AND ARE NOT UNDER
   NWS QUALITY CONTROL.

LAZ040-048-061>063-065-066-069-281900-
SOUTHEAST LOUISIANA

CITY           SKY/WX    TMP DP  RH WIND       PRES   REMARKS
N.O. AUDUBON   NOT AVBL
N.O. INTL ARPT MOSUNNY   59  43  55 E10G18    30.37F
6HR MIN TEMP:  42; 6HR MAX TEMP:  60;

N.O. LAKEFRONT SUNNY     59  43  55 E15       30.38F
6HR MIN TEMP:  43; 6HR MAX TEMP:  59;

SLIDELL        SUNNY     62  42  47 E10       30.37F
6HR MIN TEMP:  36; 6HR MAX TEMP:  62;

BATON ROUGE    MOSUNNY   62  40  44 E10       30.35F
6HR MIN TEMP:  34; 6HR MAX TEMP:  62;

BOOTHVILLE     SUNNY     56  48  74 NE12G20   30.37F
6HR MIN TEMP:  49; 6HR MAX TEMP:  56;

BELLE CHASSE   MOSUNNY   61  44  53 E12       30.36F
6HR MIN TEMP:  42; 6HR MAX TEMP:  61;

BOGALUSA*        N/A     64  33  31 SE6       30.39F
6HR MIN TEMP:  34; 6HR MAX TEMP:  64;

GALLIANO*      CLEAR     58  45  60 NE8G17    30.35F
6HR MIN TEMP:  46; 6HR MAX TEMP:  58;

NEW ROADS*     MOCLDY    61  37  42 E12       30.36F
6HR MIN TEMP:  34; 6HR MAX TEMP:  61;

GONZALES*      FAIR      59  43  56 E10       30.36S
6HR MIN TEMP:  37; 6HR MAX TEMP:  59;

HAMMOND*       SUNNY     64  34  32 E5        30.38F
HOUMA*         SUNNY     59  46  63 NE17      30.35F
PORT FOURCHON* CLEAR     55  46  71 NE17G24   30.37F

$$

LAZ041-044-053-054-281900-
SOUTHWEST LOUISIANA

CITY           SKY/WX    TMP DP  RH WIND       PRES   REMARKS
LAKE CHARLES   CLOUDY    55  37  50 E14       30.32F
6HR MIN TEMP:  38; 6HR MAX TEMP:  56;

LAFAYETTE      SUNNY     59  40  49 E9        30.34F
6HR MIN TEMP:  37; 6HR MAX TEMP:  59;

PATTERSON      SUNNY     57  43  58 E14       30.35F
6HR MIN TEMP:  39; 6HR MAX TEMP:  57;

SALT POINT       N/A     60  45  57 VRB7G20   30.31F
6HR MIN TEMP:  41; 6HR MAX TEMP:  60;

NEW IBERIA     SUNNY     61  43  51 E15       30.34F
6HR MIN TEMP:  37; 6HR MAX TEMP:  61;

CHENAULT AIRPK PTSUNNY   54  36  50 E12       30.33F

$$

LAZ027-028-281900-
CENTRAL LOUISIANA

CITY           SKY/WX    TMP DP  RH WIND       PRES   REMARKS
FORT POLK      CLOUDY    51  32  49 SE7       30.33F
6HR MIN TEMP:  36; 6HR MAX TEMP:  51;

ALEXANDRIA INT CLOUDY    50  32  50 VRB5      30.37F
6HR MIN TEMP:  34; 6HR MAX TEMP:  50;

ALEXANDRIA     CLOUDY    54  31  41 N8        30.37F
6HR MIN TEMP:  34; 6HR MAX TEMP:  54;


$$

LAZ001-002-281900-
NORTHWEST LOUISIANA

CITY           SKY/WX    TMP DP  RH WIND       PRES   REMARKS
SHREVEPORT     CLOUDY    40  27  59 E9        30.39F WCI  34
6HR MIN TEMP:  31; 6HR MAX TEMP:  40;

BARKSDALE AFB  CLOUDY    40  26  58 E7        30.40F
6HR MIN TEMP:  29; 6HR MAX TEMP:  40;

DTN SHREVEPORT CLOUDY    39  24  55 NE7       30.41F WCI  34
6HR MIN TEMP:  30; 6HR MAX TEMP:  40;


$$

LAZ014-016-281900-
NORTHEAST LOUISIANA

CITY           SKY/WX    TMP DP  RH WIND       PRES   REMARKS
MONROE         CLOUDY    44  31  60 E10       30.43F
6HR MIN TEMP:  29; 6HR MAX TEMP:  44;

TALLULAH       PTSUNNY   52  30  43 NE5       30.42F
6HR MIN TEMP:  30; 6HR MAX TEMP:  52;


$$




USA.gov is the U.S. government's official web portal to all federal, state and local government web resources and services.